Location: Bradford+West+Gwillimbury,+ON,+Canadà
(44.1162°N, 79.5735°W)
Time: 18:47:03
(UTC-04:00)

ISS - Visible Passes

Search period start: 22 June 2021 00:00
Search period end: 02 July 2021 00:00
Orbit: 417 x 422 km, 51.6° (Epoch: 22 June)

Date Brightness Start Highest point End Pass type
(mag) Time Alt. Az. Time Alt. Az. Time Alt. Az.
27 Jun -1.8 04:25:23 10° S 04:27:52 20° SE 04:30:24 10° E visible
28 Jun -1.3 03:39:47 11° SSE 03:40:36 12° SE 03:42:04 10° ESE visible
29 Jun -3.4 04:27:04 16° SW 04:29:32 53° SE 04:32:50 10° ENE visible
30 Jun -2.7 03:41:21 28° S 03:42:11 32° SE 03:45:14 10° ENE visible
01 Jul -1.8 02:55:35 19° ESE 02:55:35 19° ESE 02:57:27 10° E visible
01 Jul -3.4 04:28:31 13° WSW 04:31:26 62° NNW 04:34:47 10° NE visible
